This is the latest recevied weather packets stored in our database for station/object SP6W-10. If no packets are shown the sender has not sent any weather packets the latest 10 day(s).
| Time | Temp. | Humidity | Pressure | Rain* | Wind** | Luminosity | Snow |
|---|---|---|---|---|---|---|---|
| 1777390970 | 28.89° C | 14% | 1023.7 hPa | - | - | - | - |
| 1777389167 | 28.89° C | 14% | 1023.8 hPa | - | - | - | - |
| 1777387370 | 28.89° C | 14% | 1024 hPa | - | - | - | - |
| 1777383767 | 28.33° C | 15% | 1024.3 hPa | - | - | - | - |
| 1777381967 | 27.78° C | 17% | 1024.6 hPa | - | - | - | - |
| 1777380168 | 27.22° C | 18% | 1024.8 hPa | - | - | - | - |
| 1777378367 | 26.67° C | 18% | 1024.8 hPa | - | - | - | - |
| 1777376568 | 25.56° C | 19% | 1024.9 hPa | - | - | - | - |
| 1777374767 | 25° C | 20% | 1025.1 hPa | - | - | - | - |
| 1777372967 | 25° C | 20% | 1025.3 hPa | - | - | - | - |
| 1777371167 | 24.44° C | 21% | 1025.3 hPa | - | - | - | - |
| 1777369367 | 24.44° C | 20% | 1025.4 hPa | - | - | - | - |
| 1777367569 | 24.44° C | 20% | 1025.5 hPa | - | - | - | - |
| 1777365771 | 23.89° C | 20% | 1025.4 hPa | - | - | - | - |
| 1777363971 | 24.44° C | 20% | 1025.4 hPa | - | - | - | - |
| 1777362171 | 24.44° C | 21% | 1025.3 hPa | - | - | - | - |
| 1777360371 | 24.44° C | 21% | 1025.1 hPa | - | - | - | - |
| 1777358570 | 23.89° C | 22% | 1025.2 hPa | - | - | - | - |
| 1777356770 | 24.44° C | 22% | 1025 hPa | - | - | - | - |
| 1777354970 | 24.44° C | 22% | 1025 hPa | - | - | - | - |
| 1777353170 | 23.89° C | 22% | 1024.8 hPa | - | - | - | - |
| 1777351370 | 24.44° C | 21% | 1024.5 hPa | - | - | - | - |
| 1777349570 | 24.44° C | 20% | 1024.3 hPa | - | - | - | - |
| 1777347770 | 24.44° C | 20% | 1024 hPa | - | - | - | - |
| 1777345970 | 25° C | 21% | 1024 hPa | - | - | - | - |
* Rain since midnight (hover to see other rain measurements)
** Current wind speed in m/s (hover to see current wind gust speed)